TimePST,TemperatureF,Dew PointF,Humidity,Sea Level PressureIn,VisibilityMPH,Wind Direction,Wind SpeedMPH,Gust SpeedMPH,PrecipitationIn,Events,Conditions,WindDirDegrees,DateUTC
12:54 AM,55.9,35.1,45,30.16,10.0,North,6.9,-,N/A,,Clear,360,2011-11-28 08:54:00
1:54 AM,55.0,35.1,47,30.14,10.0,North,8.1,-,N/A,,Clear,360,2011-11-28 09:54:00
2:54 AM,55.9,34.0,44,30.14,10.0,North,8.1,-,N/A,,Clear,350,2011-11-28 10:54:00
3:54 AM,53.1,35.1,50,30.14,10.0,North,4.6,-,N/A,,Clear,10,2011-11-28 11:54:00
4:54 AM,54.0,33.1,45,30.12,10.0,North,6.9,-,N/A,,Clear,10,2011-11-28 12:54:00
5:54 AM,54.0,34.0,47,30.12,7.0,North,6.9,-,N/A,,Mostly Cloudy,10,2011-11-28 13:54:00
6:54 AM,54.0,35.1,49,30.12,7.0,North,5.8,-,N/A,,Mostly Cloudy,360,2011-11-28 14:54:00
7:54 AM,54.0,37.0,53,30.13,7.0,Variable,3.5,-,N/A,,Mostly Cloudy,0,2011-11-28 15:54:00
8:54 AM,62.1,35.1,37,30.14,7.0,Calm,Calm,-,N/A,,Mostly Cloudy,0,2011-11-28 16:54:00
9:54 AM,68.0,37.9,33,30.15,7.0,Calm,Calm,-,N/A,,Mostly Cloudy,0,2011-11-28 17:54:00
10:54 AM,70.0,48.9,47,30.14,7.0,Calm,Calm,-,N/A,,Mostly Cloudy,0,2011-11-28 18:54:00
11:54 AM,71.1,57.9,63,30.11,7.0,WSW,5.8,-,N/A,,Mostly Cloudy,250,2011-11-28 19:54:00
12:54 PM,68.0,57.0,68,30.10,7.0,WSW,5.8,-,N/A,,Mostly Cloudy,240,2011-11-28 20:54:00
1:54 PM,70.0,54.0,57,30.07,7.0,WSW,4.6,-,N/A,,Mostly Cloudy,250,2011-11-28 21:54:00
2:54 PM,69.1,50.0,51,30.07,7.0,WNW,3.5,-,N/A,,Mostly Cloudy,290,2011-11-28 22:54:00
3:54 PM,62.1,57.0,84,30.07,7.0,West,5.8,-,N/A,,Mostly Cloudy,260,2011-11-28 23:54:00
4:54 PM,59.0,55.9,90,30.06,7.0,WNW,6.9,-,N/A,,Mostly Cloudy,300,2011-11-29 00:54:00
5:54 PM,57.9,55.0,90,30.07,7.0,NNE,4.6,-,N/A,,Mostly Cloudy,30,2011-11-29 01:54:00
6:54 PM,59.0,53.1,81,30.07,7.0,North,5.8,-,N/A,,Mostly Cloudy,360,2011-11-29 02:54:00
7:54 PM,55.9,52.0,87,30.07,7.0,NNE,3.5,-,N/A,,Mostly Cloudy,30,2011-11-29 03:54:00
8:54 PM,54.0,51.1,90,30.06,7.0,North,4.6,-,N/A,,Mostly Cloudy,10,2011-11-29 04:54:00
9:54 PM,52.0,46.9,83,30.08,7.0,Calm,Calm,-,N/A,,Mostly Cloudy,0,2011-11-29 05:54:00
10:54 PM,51.1,48.9,92,30.08,7.0,Calm,Calm,-,N/A,,Mostly Cloudy,0,2011-11-29 06:54:00
11:54 PM,53.1,46.0,77,30.08,10.0,North,3.5,-,N/A,,Clear,350,2011-11-29 07:54:00